Location: Cactus School
(34.5700°N, 118.0931°W)
Time: 09:23:48
(UTC-07:00)

S-56A Canister/Altair - Pass Details

Date: 13 April 2024
Orbit: 638 x 2488 km, 38.9° (Epoch: 29 May)

Event Time Altitude Azimuth Distance (km) Brightness Sun altitude
Rises 00:11:28 0° 289° (WNW) 4,776 11.9 -45.1°
Reaches altitude 10° 00:14:13 10° 289° (WNW) 4,006 11.4 -45.2°
Enters shadow 00:21:45 55° 286° (WNW) 2,385 9.8 -45.6°
Maximum altitude 00:25:34 86° 202° (SSW) 2,199 - -45.7°
Drops below altitude 10° 00:40:34 10° 117° (ESE) 5,138 - -46.1°
Sets 00:44:37 0° 117° (ESE) 6,149 - -46.1°
